Home > Time Zones > World Clock > Weather > India > Thane > Past weeks

Flag for India Weather past 2 weeks in Thane, Maharashtra, India

Now
86 °F

Passing clouds.


Feels Like: 97 °F
Forecast: 80 / 98 °F
Wind: No wind

Location: Bombay / Santacruz

Current Time: Mar 30, 2015 at 3:58:08 AM

Latest Report: Mar 30, 2015 at 2:40 AM


Visibility: 2 mi

Pressure: 29.74 "Hg

Humidity: 75%

Dew point: 77 °F

Location of ThaneLocation

Historic Weather in Thane — Graph

°F

Thane temperature yesterday

Maximum temperature yesterday: 91 °F (at 12:40 PM)
Minimum temperature yesterday: 82 °F (at 1:40 AM)
Average temperature yesterday: 87 °F

Past Weeks' High & Low Weather Summary

 TemperatureHumidityPressure
High104 °F (Mar 25, 1:40 PM)94% (Mar 22, 2:40 AM)30.04 "Hg (Mar 22, 2:40 AM)
Low73 °F (Mar 17, 2:40 AM)23% (Mar 18, 12:40 PM)29.71 "Hg (Mar 25, 3:40 PM)
Average85 °F62%29.87 "Hg
* Reported Mar 15 1:40 AM — Mar 30 1:40 AM, Thane, Weather by CustomWeather, © 2015

Note: Actual official high and low records may vary slightly from our data, if they occured in-between our weather recording intervals... More about our weather records

Advertising

Thane weather history for previous 24 hours

 ConditionsComfort  
Time TempWeatherWind HumidityBarometerVisibility
1:40 AM
Mon, Mar 30
86 °FPassing clouds.3 mph75%29.77 "Hg2 mi
12:40 AM86 °FHaze.3 mph75%29.80 "Hg2 mi
11:40 PM
Sun, Mar 29
86 °FHaze.3 mph70%29.83 "Hg2 mi
10:40 PM86 °FHaze.8 mph70%29.86 "Hg2 mi
9:40 PM86 °FPartly cloudy.3 mph75%29.83 "Hg2 mi
8:40 PM86 °FPartly cloudy.5 mph75%29.80 "Hg2 mi
7:40 PM86 °FPassing clouds.No wind75%29.80 "Hg2 mi
6:40 PM86 °FPartly sunny.3 mph70%29.77 "Hg2 mi
5:40 PM86 °FScattered clouds.10 mph66%29.74 "Hg2 mi
4:40 PM88 °FScattered clouds.8 mph62%29.74 "Hg2 mi
3:40 PM90 °FScattered clouds.10 mph67%29.77 "Hg2 mi
2:40 PM90 °FBroken clouds.14 mph71%29.77 "Hg2 mi
1:40 PM91 °FScattered clouds.8 mph67%29.80 "Hg2 mi
12:40 PM91 °FScattered clouds.9 mph71%29.83 "Hg2 mi
11:40 AM90 °FScattered clouds.12 mph71%29.86 "Hg2 mi
10:40 AM90 °FPartly sunny.5 mph71%29.86 "Hg2 mi
9:40 AM88 °FScattered clouds.7 mph70%29.86 "Hg2 mi
8:40 AM86 °FScattered clouds.7 mph70%29.86 "Hg2 mi
7:40 AM84 °FScattered clouds.3 mph84%29.83 "Hg2 mi
6:40 AM84 °FPassing clouds.5 mph70%29.83 "Hg2 mi
5:40 AM84 °FPassing clouds.3 mph70%29.80 "Hg2 mi
4:40 AM84 °FPassing clouds.No wind70%29.77 "Hg2 mi
3:40 AM84 °FPassing clouds.No wind70%29.77 "Hg2 mi
Weather by CustomWeather, © 2015

See weather overviewHow to use our weather pages